Location: Hains Lake
(37.8540°N, 99.8578°W)
Time: 18:40:33
(UTC+00:00)

Cosmos 1500 - Pass Details

Date: 11 December 2019
Orbit: 499 x 521 km, 82.5° (Epoch: 23 January)

Event Time Altitude Azimuth Distance (km) Brightness Sun altitude
Rises 12:20:38 0° 172° (S) 2,629 7.1 -16.1°
Reaches altitude 10° 12:22:49 10° 166° (SSE) 1,745 6.3 -15.7°
Maximum altitude 12:26:29 46° 94° (E) 709 4.4 -15.0°
Drops below altitude 10° 12:30:10 10° 20° (NNE) 1,750 5.9 -14.3°
Sets 12:32:21 0° 14° (NNE) 2,638 6.8 -13.9°
